SCP
0 0 0 0 0 0 0 0 0 0 0 0 0 0 0 0 0 0 0 0 0 0 0 0 0 0 0 0 0 0 0 0 0 0 0 0 0 0 0 0 0 0 0 0
0 0 0 0 0 0 0 0 0 0 0 0 0 0 0 0 0 0 0 0 0 0 0 0 0 0 0 0 0 0 0 0 0 0 0 0 0 0 0 0 0 0 0 0
0 0 0 0 0 0 0 0 0 0 0 0 0 -0 0 0 0 0 0 0 0 0 0 0 0 0 0 0 0 0 0 0 0 0 0 0 0 0 0 0 0 0 0 0
0 0 0 0 0 0 0 0 0 0 0 0 0 0 0 0 0 0 0 0 0 0 0 0 0 0 0 0 0 0 0 0 0 0 0 0 0 0 0 0 0 0 0 0
0 0 0 0 0 0 0 0 0 0 0 0 0 0 0 0 0 0 0 0 0 0 0 0 0 0 0 0 0 0 0 0 0 0 0 0 0 0 0 0 0 0 0 0
0 0 0 0 0 0 0 0 0 0 0 0 0 0 0 0 0 0 0 0 0 0 0 0 0 0 0 0 0 0 0 0 0 0 0 0 0 0 0 0 0 0 0 0
0 0 0 0 0 0 0 0 0 0 0 0 0 0 0 0 0 0 0 0 0 0 0 0 0 0 0 0 0 0 0 0 0 0 0 0 0 0 0 0 0 0 0 0
0 0 0 0 0 0 0 0 0 0 0 0 0 0 0 0 0 0 0 0 0 0 0 0 0 0 0 0 0 0 0 0 0 0 0 0 0 0 0 0 0 0 0 0
0 0 0 0 0 0 0 0 0 0 0 0 0 0 0 0 0 0 0 0 0 0 0 0 0 0 0 0 0 0 0 0 0 0 0 0 0 0 0 0 0 0 0 0
0 0 0 0 0 0 0 0 0 0 0 0 0 0 0 0 0 0 0 0 0 -0 -0 0 0 0 0 0 0 0 0 0 0 0 0 0 0 0 0 0 0 0 0 0
0 0 0 0 0 0 0 0 0 0 0 0 0 0 0 0 0 0 0 0 0 0 0 0 0 0 0 0 0 0 0 0 0 0 0 0 0 0 0 0 0 0 0 0
0 0 0 0 0 0 0 0 0 0 0 0 0 0 0 0 0 0 0 0 0 0 0 0 0 0 0 0 0 0 0 0 0 0 0 0 0 0 0 0 0 0 0 0
0 0 0 0 0 0 0 0 0 0 0 0 0 0 0 -0 0 0 0 0 0 0 0 0 0 0 0 0 0 0 0 0 0 0 0 0 0 0 0 0 0 0 0 0
0 0 0 0 0 0 0 0 0 0 0 0 0 0 0 0 0 0 0 0 0 0 0 0 0 0 0 0 0 0 0 0 0 0 0 0 0 0 0 0 0 0 0 0
0 0 0 0 0 0 0 0 0 0 0 0 0 0 0 0 0 0 0 0 0 0 0 0 0 0 0 0 0 0 0 0 0 0 0 0 0 0 0 0 0 0 0 0
0 0 0 0 0 0 0 0 0 0 0 0 0 0 0 0 0 0 0 0 0 0 0 0 0 0 0 0 0 0 0 0 0 0 0 0 0 0 0 0 0 0 0 0
0 0 0 0 0 0 0 0 0 0 0 0 0 0 0 0 0 0 0 0 0 0 0 0 0 0 0 0 0 0 0 0 0 0 0 0 0 0 0 0 0 0 0 0
0 0 0 0 0 0 0 0 0 0 0 0 0 0 0 0 0 0 0 0 0 0 0 0 0 0 0 0 0 0 0 0 0 0 0 0 0 0 0 0 0 0 0 0
0 0 0 0 0 0 0 0 0 0 0 0 0 0 0 0 0 0 0 0 0 0 0 0 0 0 0 0 0 0 0 0 0 0 0 0 0 0 0 0 0 0 0 0
0 0 0 0 0 0 0 0 0 0 0 0 0 0 0 0 0 0 0 0 0 0 0 0 0 0 0 0 0 0 0 0 0 0 0 0 0 0 0 0 0 0 0 0
0 0 0 0 0 0 0 0 0 0 0 0 0 0 0 0 0 0 0 0 0 0 0 0 0 0 0 0 0 0 0 0 0 0 0 0 0 0 0 0 0 0 0 0
0 0 0 0 0 0 0 0 0 0 0 0 0 0 0 0 0 0 0 0 0 0 0 0 0 0 0 0 0 0 0 0 0 0 0 0 0 0 0 0 0 0 0 0
0 0 0 0 0 0 0 0 0 0 0 0 0 0 0 0 0 0 0 0 0 0 0 0 0 0 0 0 0 0 0 0 0 0 0 0 0 0 0 0 0 0 0 0
0 0 0 0 0 0 0 0 0 0 0 0 0 0 0 0 0 0 0 0 0 0 0 0 0 0 0 0 0 0 0 0 0 0 0 0 0 0 0 0 0 0 0 0
0 0 0 0 0 0 0 0 0 0 0 0 0 0 0 0 0 0 0 0 0 0 0 0 0 0 0 0 0 0 0 0 0 0 0 0 0 0 0 0 0 0 0 0
0 0 0 0 0 0 0 0 0 0 0 0 0 0 0 0 0 0 0 0 0 0 0 0 0 0 0 0 0 0 0 0 0 0 0 0 0 0 0 0 0 0 0 0
Wind_Speed_500mb
2 7 11 7 2 4 3 3 8 2 4 8 16 36 44 38 38 51 59 57 55 56 49 52 51 49 46 40 34 27 29 31 35 42 49 49 48 44 44 48 51 55 60 64
4 9 8 11 7 5 4 5 7 2 2 5 12 38 47 39 40 53 49 49 52 50 50 59 60 54 48 43 37 34 34 35 39 46 54 54 54 52 52 53 54 58 63 65
6 6 11 5 8 9 4 7 3 5 9 3 17 19 15 3 9 24 32 35 32 38 43 49 60 60 53 48 40 37 37 36 40 47 54 55 57 59 61 61 63 62 64 65
5 7 8 8 6 5 6 6 6 2 6 8 7 13 13 7 18 17 22 20 18 21 29 38 56 67 62 48 40 38 37 35 43 51 51 54 57 62 63 66 68 68 67 67
6 12 8 6 3 4 3 5 4 2 0 6 4 9 13 4 4 4 7 14 11 13 17 29 54 71 63 54 46 39 35 35 44 52 49 53 56 60 66 68 69 68 67 67
6 3 4 4 5 4 18 6 4 3 2 7 4 7 9 7 2 3 4 6 8 13 20 27 39 53 59 56 48 37 32 35 43 46 46 51 55 61 65 66 68 68 69 68
3 4 2 2 6 4 5 5 3 4 5 6 4 7 23 10 9 7 3 1 9 18 23 29 37 45 51 51 43 36 33 36 40 42 44 48 53 59 63 64 67 69 70 69
12 8 12 5 4 4 12 5 7 11 6 1 4 13 9 8 7 8 12 13 11 16 23 27 31 38 44 45 41 37 37 37 40 44 43 48 52 56 58 61 64 67 67 66
9 3 3 4 4 5 10 11 5 11 3 4 6 11 28 14 17 26 26 16 20 15 16 25 31 38 42 45 43 41 43 42 44 45 43 46 50 53 56 58 60 63 63 62
12 4 1 3 2 4 5 3 5 3 9 11 7 11 18 4 6 5 5 20 22 20 24 27 29 37 41 47 46 48 47 47 48 42 42 45 48 50 52 57 59 57 57 58
4 2 5 1 17 18 9 7 4 6 5 7 5 10 11 18 14 8 7 8 10 13 15 14 24 36 41 46 52 53 50 51 48 39 39 42 43 45 48 51 53 52 52 55
14 5 8 7 3 4 4 10 16 8 10 3 5 14 5 10 8 10 17 18 19 14 11 28 33 37 38 41 49 53 52 53 41 37 36 38 39 42 44 45 44 46 49 51
16 8 5 4 5 2 12 14 12 7 3 17 8 10 4 7 13 19 22 18 18 32 44 45 46 45 44 45 46 48 47 38 35 33 34 33 35 37 40 41 40 43 46 50
14 7 11 21 7 12 12 16 24 12 10 13 30 36 17 20 23 23 29 36 40 43 48 59 47 38 35 36 37 38 36 33 31 30 31 30 31 33 34 35 36 37 41 47
11 14 9 7 2 7 7 10 32 35 43 24 26 41 35 40 43 39 42 39 40 51 57 47 43 38 36 36 36 35 35 33 29 28 27 27 28 28 29 30 31 32 37 45
8 8 9 9 11 13 12 25 26 45 31 47 41 60 26 51 51 57 67 52 53 57 55 51 45 36 35 34 34 34 34 32 29 26 24 25 24 25 25 25 26 26 34 44
18 14 11 27 8 7 18 46 39 24 30 34 35 62 21 39 40 49 56 41 47 54 59 46 24 19 20 25 28 31 31 33 29 26 21 22 22 21 21 21 19 24 34 43
15 11 8 13 8 23 20 6 20 51 53 47 50 53 39 42 58 46 49 51 72 61 46 25 23 20 19 19 24 27 31 31 29 26 21 20 21 19 17 17 15 24 31 42
31 19 10 12 25 29 36 14 18 21 45 46 49 53 59 68 28 63 61 55 35 23 22 24 26 26 25 21 23 25 28 30 31 28 22 20 20 19 17 13 12 23 29 39
31 28 18 10 16 28 33 34 33 13 37 31 48 50 50 19 14 23 15 16 10 7 15 21 24 27 27 24 25 26 29 30 31 27 25 23 21 20 20 15 12 20 27 36
12 13 36 36 17 18 10 16 34 23 15 36 58 62 25 18 22 6 31 20 12 6 6 15 24 29 29 31 31 33 35 33 23 30 30 28 25 22 21 20 15 16 22 29
35 27 17 19 19 38 23 26 30 31 11 19 44 48 52 57 34 35 33 28 18 14 15 21 26 31 36 43 42 42 46 32 31 31 35 33 31 27 23 20 18 14 18 22
17 27 18 26 18 9 53 55 76 37 26 26 38 38 48 43 46 59 43 36 22 15 14 22 28 32 40 48 54 54 51 41 41 39 40 40 37 32 28 22 19 14 13 16
16 25 13 12 25 26 46 73 61 72 73 57 51 37 42 49 45 66 63 52 39 35 20 24 27 33 37 44 54 57 57 50 54 49 46 47 44 38 33 28 22 18 12 12
14 12 24 15 20 23 29 56 80 86 86 84 81 71 60 53 45 54 60 55 45 27 22 23 28 31 36 38 42 48 55 59 63 59 55 56 51 44 39 33 27 25 16 9
12 14 6 11 24 36 44 50 67 74 85 101 91 81 76 73 74 65 60 63 59 52 35 35 34 37 39 42 41 45 49 56 65 68 67 67 61 51 46 39 34 31 24 14
Wind_Direction_500mb
27 196 205 163 98 48 57 230 250 162 86 306 257 273 274 264 248 250 245 241 238 235 231 223 222 219 217 221 233 254 276 293 306 316 321 319 321 320 320 320 320 319 320 318
160 228 121 111 117 129 154 233 248 220 161 290 288 280 276 265 247 248 252 245 241 239 229 225 222 218 219 225 237 255 273 286 303 311 318 318 320 321 320 319 320 322 321 319
217 105 140 157 155 164 169 228 229 298 305 245 299 265 260 182 237 246 249 245 239 238 233 227 218 216 218 225 239 255 270 284 299 307 314 316 317 320 323 323 321 321 321 320
99 141 172 164 176 201 220 135 116 346 308 278 338 293 306 264 287 245 247 231 237 235 233 218 210 212 216 222 237 253 265 283 298 306 309 313 317 318 320 320 321 323 323 322
144 164 170 187 116 175 107 151 128 139 146 318 180 251 267 351 256 14 26 197 223 232 214 207 203 210 217 228 236 247 262 284 297 301 304 311 314 316 318 320 321 323 324 326
77 24 358 52 75 48 135 130 109 114 186 242 101 263 270 232 116 94 76 119 171 167 165 172 188 203 214 221 229 244 260 280 295 297 300 308 311 314 317 320 322 324 326 326
136 157 93 194 126 99 208 194 263 240 189 256 133 228 259 280 249 237 59 109 170 175 175 183 192 200 207 217 231 243 255 281 292 297 298 306 311 314 318 322 323 326 327 327
187 235 179 151 267 239 188 260 228 242 220 77 134 232 245 193 240 266 274 220 207 198 200 204 210 217 222 228 236 245 255 284 296 299 299 306 311 315 320 321 324 327 327 326
157 192 61 21 342 313 154 217 11 101 71 258 233 264 279 237 256 243 233 226 235 228 230 228 229 233 234 236 240 251 263 287 298 298 299 307 312 316 320 322 326 329 329 327
182 152 103 73 312 91 257 115 151 238 208 232 225 274 250 173 156 113 166 209 227 244 246 243 250 251 249 243 246 258 267 288 296 292 299 307 313 318 321 325 329 330 330 332
123 224 114 181 199 183 166 208 229 293 256 246 232 234 229 207 207 198 171 165 223 243 241 245 280 266 259 256 256 263 272 285 290 286 296 305 312 318 322 328 329 331 335 342
183 127 182 196 54 316 272 220 195 223 204 243 336 258 208 225 233 222 241 255 243 238 250 287 285 273 266 265 261 265 272 280 273 282 295 304 312 319 324 330 332 335 345 347
180 202 165 190 180 178 229 205 215 117 99 195 206 242 94 224 258 250 245 242 248 269 288 290 284 277 267 263 260 264 268 261 265 278 292 302 312 320 327 331 338 341 352 349
150 197 205 231 178 122 194 197 201 205 209 206 226 249 244 258 238 240 253 269 277 276 283 291 280 274 268 266 256 257 257 253 263 277 288 300 311 319 328 333 340 349 355 356
179 221 188 266 234 202 217 183 191 204 223 222 255 239 235 248 262 276 277 273 276 278 285 279 277 273 267 257 255 254 247 252 258 272 286 297 309 317 328 335 341 357 1 3
191 221 157 248 202 227 262 233 205 217 231 247 262 270 243 263 277 272 270 272 268 273 276 280 283 263 247 244 248 249 243 247 256 265 281 293 305 314 323 337 344 7 3 1
172 169 166 252 137 159 267 231 210 210 214 219 231 248 252 262 255 260 272 268 259 267 281 281 258 227 219 232 238 243 245 245 251 262 277 289 298 306 321 336 347 5 2 360
173 188 190 247 143 228 243 184 206 217 232 219 247 258 253 255 267 276 266 268 279 277 274 227 201 193 205 221 235 237 242 249 252 258 271 282 288 296 311 327 349 360 3 1
193 189 206 206 211 277 285 174 166 181 247 222 233 248 254 256 282 277 266 275 267 247 213 197 193 197 201 215 227 235 246 252 254 260 270 277 282 289 294 307 331 353 0 0
196 218 208 163 225 226 259 212 173 134 263 185 212 234 240 163 238 260 207 202 204 197 204 202 207 209 212 224 234 239 248 252 257 262 270 271 273 278 282 287 307 346 355 359
176 205 216 221 227 263 239 142 153 188 261 187 204 228 205 198 212 223 166 157 144 153 236 246 238 232 231 231 242 250 250 258 257 256 260 261 262 266 271 278 293 331 346 355
194 178 195 215 230 246 140 147 203 214 161 189 209 219 209 224 218 209 173 169 178 204 228 239 240 240 244 245 246 255 255 263 252 259 258 257 256 260 263 272 284 305 332 348
213 209 203 201 216 225 191 213 219 234 232 224 220 213 220 224 218 206 205 207 215 232 242 245 241 245 246 248 250 254 264 256 256 257 256 252 251 256 262 261 264 273 310 336
233 213 229 177 232 235 218 228 232 234 234 235 230 236 249 236 242 218 218 226 248 269 276 258 253 255 256 257 256 260 262 257 256 254 251 248 247 250 256 254 249 244 274 314
304 191 219 242 273 251 246 238 236 236 237 239 242 249 245 236 235 229 233 241 254 262 287 265 261 276 279 269 265 259 258 256 256 254 251 246 242 243 249 250 245 233 246 278
324 4 300 274 302 308 258 252 259 250 245 251 245 242 235 242 245 250 262 271 269 270 280 273 259 273 282 274 267 261 257 254 253 251 249 246 241 239 241 245 241 234 232 246
Wind_Speed_850mb
2 7 11 7 2 4 3 3 8 2 4 8 16 36 44 38 38 51 59 57 55 56 49 52 51 49 46 40 34 27 29 31 35 42 49 49 48 44 44 48 51 55 60 64
4 9 8 11 7 5 4 5 7 2 2 5 12 38 47 39 40 53 49 49 52 50 50 59 60 54 48 43 37 34 34 35 39 46 54 54 54 52 52 53 54 58 63 65
6 6 11 5 8 9 4 7 3 5 9 3 17 19 15 3 9 24 32 35 32 38 43 49 60 60 53 48 40 37 37 36 40 47 54 55 57 59 61 61 63 62 64 65
5 7 8 8 6 5 6 6 6 2 6 8 7 13 13 7 18 17 22 20 18 21 29 38 56 67 62 48 40 38 37 35 43 51 51 54 57 62 63 66 68 68 67 67
6 12 8 6 3 4 3 5 4 2 0 6 4 9 13 4 4 4 7 14 11 13 17 29 54 71 63 54 46 39 35 35 44 52 49 53 56 60 66 68 69 68 67 67
6 3 4 4 5 4 18 6 4 3 2 7 4 7 9 7 2 3 4 6 8 13 20 27 39 53 59 56 48 37 32 35 43 46 46 51 55 61 65 66 68 68 69 68
3 4 2 2 6 4 5 5 3 4 5 6 4 7 23 10 9 7 3 1 9 18 23 29 37 45 51 51 43 36 33 36 40 42 44 48 53 59 63 64 67 69 70 69
12 8 12 5 4 4 12 5 7 11 6 1 4 13 9 8 7 8 12 13 11 16 23 27 31 38 44 45 41 37 37 37 40 44 43 48 52 56 58 61 64 67 67 66
9 3 3 4 4 5 10 11 5 11 3 4 6 11 28 14 17 26 26 16 20 15 16 25 31 38 42 45 43 41 43 42 44 45 43 46 50 53 56 58 60 63 63 62
12 4 1 3 2 4 5 3 5 3 9 11 7 11 18 4 6 5 5 20 22 20 24 27 29 37 41 47 46 48 47 47 48 42 42 45 48 50 52 57 59 57 57 58
4 2 5 1 17 18 9 7 4 6 5 7 5 10 11 18 14 8 7 8 10 13 15 14 24 36 41 46 52 53 50 51 48 39 39 42 43 45 48 51 53 52 52 55
14 5 8 7 3 4 4 10 16 8 10 3 5 14 5 10 8 10 17 18 19 14 11 28 33 37 38 41 49 53 52 53 41 37 36 38 39 42 44 45 44 46 49 51
16 8 5 4 5 2 12 14 12 7 3 17 8 10 4 7 13 19 22 18 18 32 44 45 46 45 44 45 46 48 47 38 35 33 34 33 35 37 40 41 40 43 46 50
14 7 11 21 7 12 12 16 24 12 10 13 30 36 17 20 23 23 29 36 40 43 48 59 47 38 35 36 37 38 36 33 31 30 31 30 31 33 34 35 36 37 41 47
11 14 9 7 2 7 7 10 32 35 43 24 26 41 35 40 43 39 42 39 40 51 57 47 43 38 36 36 36 35 35 33 29 28 27 27 28 28 29 30 31 32 37 45
8 8 9 9 11 13 12 25 26 45 31 47 41 60 26 51 51 57 67 52 53 57 55 51 45 36 35 34 34 34 34 32 29 26 24 25 24 25 25 25 26 26 34 44
18 14 11 27 8 7 18 46 39 24 30 34 35 62 21 39 40 49 56 41 47 54 59 46 24 19 20 25 28 31 31 33 29 26 21 22 22 21 21 21 19 24 34 43
15 11 8 13 8 23 20 6 20 51 53 47 50 53 39 42 58 46 49 51 72 61 46 25 23 20 19 19 24 27 31 31 29 26 21 20 21 19 17 17 15 24 31 42
31 19 10 12 25 29 36 14 18 21 45 46 49 53 59 68 28 63 61 55 35 23 22 24 26 26 25 21 23 25 28 30 31 28 22 20 20 19 17 13 12 23 29 39
31 28 18 10 16 28 33 34 33 13 37 31 48 50 50 19 14 23 15 16 10 7 15 21 24 27 27 24 25 26 29 30 31 27 25 23 21 20 20 15 12 20 27 36
12 13 36 36 17 18 10 16 34 23 15 36 58 62 25 18 22 6 31 20 12 6 6 15 24 29 29 31 31 33 35 33 23 30 30 28 25 22 21 20 15 16 22 29
35 27 17 19 19 38 23 26 30 31 11 19 44 48 52 57 34 35 33 28 18 14 15 21 26 31 36 43 42 42 46 32 31 31 35 33 31 27 23 20 18 14 18 22
17 27 18 26 18 9 53 55 76 37 26 26 38 38 48 43 46 59 43 36 22 15 14 22 28 32 40 48 54 54 51 41 41 39 40 40 37 32 28 22 19 14 13 16
16 25 13 12 25 26 46 73 61 72 73 57 51 37 42 49 45 66 63 52 39 35 20 24 27 33 37 44 54 57 57 50 54 49 46 47 44 38 33 28 22 18 12 12
14 12 24 15 20 23 29 56 80 86 86 84 81 71 60 53 45 54 60 55 45 27 22 23 28 31 36 38 42 48 55 59 63 59 55 56 51 44 39 33 27 25 16 9
12 14 6 11 24 36 44 50 67 74 85 101 91 81 76 73 74 65 60 63 59 52 35 35 34 37 39 42 41 45 49 56 65 68 67 67 61 51 46 39 34 31 24 14
Wind_Direction_850mb
27 196 205 163 98 48 57 230 250 162 86 306 257 273 274 264 248 250 245 241 238 235 231 223 222 219 217 221 233 254 276 293 306 316 321 319 321 320 320 320 320 319 320 318
160 228 121 111 117 129 154 233 248 220 161 290 288 280 276 265 247 248 252 245 241 239 229 225 222 218 219 225 237 255 273 286 303 311 318 318 320 321 320 319 320 322 321 319
217 105 140 157 155 164 169 228 229 298 305 245 299 265 260 182 237 246 249 245 239 238 233 227 218 216 218 225 239 255 270 284 299 307 314 316 317 320 323 323 321 321 321 320
99 141 172 164 176 201 220 135 116 346 308 278 338 293 306 264 287 245 247 231 237 235 233 218 210 212 216 222 237 253 265 283 298 306 309 313 317 318 320 320 321 323 323 322
144 164 170 187 116 175 107 151 128 139 146 318 180 251 267 351 256 14 26 197 223 232 214 207 203 210 217 228 236 247 262 284 297 301 304 311 314 316 318 320 321 323 324 326
77 24 358 52 75 48 135 130 109 114 186 242 101 263 270 232 116 94 76 119 171 167 165 172 188 203 214 221 229 244 260 280 295 297 300 308 311 314 317 320 322 324 326 326
136 157 93 194 126 99 208 194 263 240 189 256 133 228 259 280 249 237 59 109 170 175 175 183 192 200 207 217 231 243 255 281 292 297 298 306 311 314 318 322 323 326 327 327
187 235 179 151 267 239 188 260 228 242 220 77 134 232 245 193 240 266 274 220 207 198 200 204 210 217 222 228 236 245 255 284 296 299 299 306 311 315 320 321 324 327 327 326
157 192 61 21 342 313 154 217 11 101 71 258 233 264 279 237 256 243 233 226 235 228 230 228 229 233 234 236 240 251 263 287 298 298 299 307 312 316 320 322 326 329 329 327
182 152 103 73 312 91 257 115 151 238 208 232 225 274 250 173 156 113 166 209 227 244 246 243 250 251 249 243 246 258 267 288 296 292 299 307 313 318 321 325 329 330 330 332
123 224 114 181 199 183 166 208 229 293 256 246 232 234 229 207 207 198 171 165 223 243 241 245 280 266 259 256 256 263 272 285 290 286 296 305 312 318 322 328 329 331 335 342
183 127 182 196 54 316 272 220 195 223 204 243 336 258 208 225 233 222 241 255 243 238 250 287 285 273 266 265 261 265 272 280 273 282 295 304 312 319 324 330 332 335 345 347
180 202 165 190 180 178 229 205 215 117 99 195 206 242 94 224 258 250 245 242 248 269 288 290 284 277 267 263 260 264 268 261 265 278 292 302 312 320 327 331 338 341 352 349
150 197 205 231 178 122 194 197 201 205 209 206 226 249 244 258 238 240 253 269 277 276 283 291 280 274 268 266 256 257 257 253 263 277 288 300 311 319 328 333 340 349 355 356
179 221 188 266 234 202 217 183 191 204 223 222 255 239 235 248 262 276 277 273 276 278 285 279 277 273 267 257 255 254 247 252 258 272 286 297 309 317 328 335 341 357 1 3
191 221 157 248 202 227 262 233 205 217 231 247 262 270 243 263 277 272 270 272 268 273 276 280 283 263 247 244 248 249 243 247 256 265 281 293 305 314 323 337 344 7 3 1
172 169 166 252 137 159 267 231 210 210 214 219 231 248 252 262 255 260 272 268 259 267 281 281 258 227 219 232 238 243 245 245 251 262 277 289 298 306 321 336 347 5 2 360
173 188 190 247 143 228 243 184 206 217 232 219 247 258 253 255 267 276 266 268 279 277 274 227 201 193 205 221 235 237 242 249 252 258 271 282 288 296 311 327 349 360 3 1
193 189 206 206 211 277 285 174 166 181 247 222 233 248 254 256 282 277 266 275 267 247 213 197 193 197 201 215 227 235 246 252 254 260 270 277 282 289 294 307 331 353 0 0
196 218 208 163 225 226 259 212 173 134 263 185 212 234 240 163 238 260 207 202 204 197 204 202 207 209 212 224 234 239 248 252 257 262 270 271 273 278 282 287 307 346 355 359
176 205 216 221 227 263 239 142 153 188 261 187 204 228 205 198 212 223 166 157 144 153 236 246 238 232 231 231 242 250 250 258 257 256 260 261 262 266 271 278 293 331 346 355
194 178 195 215 230 246 140 147 203 214 161 189 209 219 209 224 218 209 173 169 178 204 228 239 240 240 244 245 246 255 255 263 252 259 258 257 256 260 263 272 284 305 332 348
213 209 203 201 216 225 191 213 219 234 232 224 220 213 220 224 218 206 205 207 215 232 242 245 241 245 246 248 250 254 264 256 256 257 256 252 251 256 262 261 264 273 310 336
233 213 229 177 232 235 218 228 232 234 234 235 230 236 249 236 242 218 218 226 248 269 276 258 253 255 256 257 256 260 262 257 256 254 251 248 247 250 256 254 249 244 274 314
304 191 219 242 273 251 246 238 236 236 237 239 242 249 245 236 235 229 233 241 254 262 287 265 261 276 279 269 265 259 258 256 256 254 251 246 242 243 249 250 245 233 246 278
324 4 300 274 302 308 258 252 259 250 245 251 245 242 235 242 245 250 262 271 269 270 280 273 259 273 282 274 267 261 257 254 253 251 249 246 241 239 241 245 241 234 232 246